RH
52 55 55 53 53 51 50 54 53 50 45 38 33 30 31 31 32 32 31 29 25 23 20 19 17 15 21 26 34 40 37 30 38 58 47 15 4 6 8 9 16 20 14 16 21 31 37 35 34 31 35 37 44 45 50 78 87 85 94 96 93 96 96 87 82 82 85 89 85 82 81 74 73 75 76 76 71 70 74 70 67 67 68 70 70 71 74 82
36 38 40 41 40 39 38 38 38 37 37 35 32 29 28 27 26 26 25 23 23 22 22 20 16 16 22 28 41 45 42 47 65 77 43 8 11 8 9 16 20 17 12 15 16 25 35 34 35 35 39 41 44 45 59 81 81 87 98 94 92 93 89 80 76 78 79 82 82 85 84 75 73 74 76 77 72 72 77 74 73 76 74 71 70 73 78 84
31 31 31 30 29 28 28 27 27 27 29 30 30 29 28 26 25 25 23 22 22 22 23 20 16 17 21 31 43 47 56 65 59 51 28 16 17 7 13 20 19 20 15 13 13 18 27 29 33 33 36 39 39 49 69 79 82 89 90 92 93 86 82 82 80 75 73 78 83 87 85 77 77 83 80 77 77 75 79 78 79 83 80 75 74 75 80 84
28 28 27 26 23 22 23 22 22 22 23 24 27 29 29 28 26 25 24 24 23 24 24 21 19 17 22 36 46 55 69 61 35 25 22 19 15 9 16 19 16 19 15 11 10 16 20 22 27 27 34 36 34 55 76 76 80 87 84 87 88 79 78 83 83 78 75 78 85 87 83 79 82 90 82 72 78 79 78 75 75 81 78 76 77 77 80 84
25 24 23 22 21 20 20 19 19 19 19 20 22 25 27 28 28 27 25 24 24 26 26 24 21 18 27 41 53 66 63 42 25 23 22 16 13 12 16 19 17 14 13 12 9 14 15 15 21 24 32 34 34 54 75 74 74 85 85 78 81 78 76 88 89 81 81 81 84 85 80 80 82 88 83 70 74 76 73 69 67 72 71 73 76 76 80 83
22 22 21 21 20 19 18 18 18 17 18 18 18 20 22 25 27 29 27 25 25 25 28 27 23 21 30 45 61 66 46 27 23 19 19 18 13 12 15 19 18 15 15 12 10 11 11 14 20 27 31 32 35 42 58 71 71 81 85 78 86 84 80 95 95 83 85 85 87 85 79 81 82 87 90 78 72 69 67 64 62 66 66 68 72 75 79 82
21 20 20 19 19 18 17 17 17 17 17 16 17 17 17 19 22 27 29 27 25 25 30 28 23 23 32 47 63 61 42 28 22 17 19 18 14 13 13 18 20 17 16 13 12 11 12 16 20 30 35 33 37 33 41 67 73 74 83 89 95 91 90 97 95 91 90 89 95 87 79 85 86 87 89 85 82 73 64 60 60 63 64 66 71 74 78 81
21 20 19 18 18 17 17 17 16 16 16 16 16 16 17 18 19 24 28 29 26 26 31 28 25 27 38 51 55 50 41 28 19 21 24 18 16 14 13 21 23 18 16 14 13 13 16 18 20 29 35 34 36 32 39 68 79 74 82 94 95 92 93 92 92 95 92 92 97 88 84 93 93 89 84 81 82 74 63 59 60 63 65 68 72 73 76 79
22 20 18 17 17 16 16 16 16 16 15 15 15 16 18 18 19 21 26 31 28 30 32 29 26 31 50 60 49 36 26 18 18 22 23 21 19 15 16 22 23 20 16 15 15 14 14 18 23 27 32 35 32 29 43 66 75 75 85 93 93 92 90 89 94 96 92 93 93 89 91 96 94 88 83 78 75 70 62 60 62 64 68 70 71 72 75 78
23 21 19 17 16 16 16 16 16 16 14 15 15 16 17 18 20 20 25 31 31 33 32 28 28 40 60 55 35 27 17 13 20 23 22 23 20 18 18 19 21 22 17 17 17 13 14 20 23 25 30 34 30 38 53 62 69 79 88 90 89 91 89 88 95 95 92 93 92 92 94 95 92 86 84 79 72 64 61 63 64 66 69 69 70 72 73 75
24 22 19 17 17 16 16 16 15 15 14 15 14 15 16 17 19 20 24 30 34 36 32 29 32 47 63 47 24 20 15 14 20 24 23 20 21 21 18 18 21 21 19 20 18 11 14 20 22 25 32 30 32 59 76 69 77 87 85 88 88 87 89 88 93 94 91 94 92 90 92 92 89 88 89 83 69 61 61 65 65 66 69 69 69 71 72 73
24 22 20 18 17 16 17 16 15 14 14 14 13 14 14 16 20 21 24 30 36 37 33 33 39 54 64 51 34 20 12 16 20 22 23 19 22 23 19 19 19 20 19 19 19 12 11 17 21 23 30 27 24 55 85 77 78 85 81 91 92 85 91 92 91 92 91 95 91 86 88 90 90 91 89 80 65 61 65 66 66 66 66 68 68 69 70 69
24 22 20 18 17 17 17 17 16 15 14 13 13 13 14 18 22 22 24 32 39 38 35 36 48 64 62 42 30 20 14 18 18 20 23 20 21 22 20 17 14 18 17 15 15 10 8 12 18 21 25 24 16 38 72 73 73 83 83 91 94 89 96 95 89 90 92 95 93 91 93 93 93 90 87 81 68 64 68 65 64 65 63 65 66 65 66 63
22 21 19 18 17 17 17 17 16 14 13 12 12 13 17 23 27 26 26 35 43 39 36 42 54 68 65 40 22 18 19 16 13 15 17 16 16 19 20 16 12 15 15 12 10 9 9 9 14 21 18 16 24 49 73 72 75 88 85 88 96 97 99 94 87 90 96 95 91 93 96 95 92 85 85 88 76 66 67 64 63 62 60 62 62 62 62 60
21 20 18 17 16 16 17 16 15 13 12 12 12 15 22 31 34 31 31 40 46 40 42 54 62 67 62 39 18 15 17 14 11 9 9 10 11 17 19 15 12 12 12 10 8 10 12 11 13 18 15 22 48 75 85 81 84 87 85 91 98 98 99 93 87 90 95 93 89 91 95 96 93 84 84 91 82 67 64 64 63 62 59 59 59 58 58 58
19 18 17 16 15 15 16 16 14 12 11 11 13 18 29 39 40 37 41 47 45 42 50 62 69 65 45 24 16 16 15 14 12 9 9 8 9 14 16 14 13 13 12 11 10 11 11 12 16 18 25 49 77 90 92 91 91 87 86 96 100 99 98 94 91 91 90 91 89 92 95 97 93 85 85 90 82 67 64 64 62 61 59 57 57 55 56 57
18 17 16 15 15 15 15 15 12 11 11 12 15 23 37 44 44 45 48 48 44 47 56 66 73 59 29 15 17 17 16 16 14 12 11 10 10 12 14 16 16 14 14 13 11 13 14 15 21 25 30 55 81 89 91 96 96 94 94 98 99 98 94 93 96 92 89 92 89 90 93 93 91 86 87 90 81 69 67 64 61 61 59 57 56 55 55 57
18 16 14 14 14 14 15 13 11 11 10 13 17 27 40 47 49 50 48 48 50 53 56 63 64 44 21 17 18 17 18 17 15 13 12 12 12 11 14 17 17 17 17 17 15 16 19 21 27 29 25 45 79 88 84 86 92 94 94 98 100 98 93 94 99 94 90 93 92 92 92 92 91 88 90 91 83 74 68 65 60 59 59 58 56 55 54 55
17 16 13 13 12 13 14 12 11 10 10 14 18 26 39 47 53 52 50 55 51 38 35 43 44 31 21 20 19 19 18 14 13 11 12 13 13 13 14 14 15 17 17 19 19 18 22 26 30 31 28 43 72 83 72 66 80 89 86 91 98 99 97 97 98 94 89 93 96 93 92 94 93 93 93 90 87 78 69 65 62 59 59 59 57 54 53 53
17 15 12 12 11 12 13 11 10 9 11 15 16 23 33 38 48 48 47 56 49 27 20 27 32 29 26 23 22 21 17 13 11 11 12 12 12 14 14 15 18 19 18 20 19 18 22 28 31 33 34 34 41 55 55 42 51 73 80 85 92 94 97 99 98 95 91 95 99 93 92 93 91 94 92 86 87 84 73 68 64 61 61 61 58 53 52 51
16 13 11 10 9 11 12 11 9 9 13 16 16 23 29 29 37 37 34 40 39 32 28 27 29 28 25 24 23 19 16 13 11 11 13 12 12 14 15 18 19 19 21 19 19 22 24 27 30 30 30 29 25 30 34 24 23 52 77 83 89 93 95 100 99 95 94 95 97 93 92 91 89 95 92 85 88 83 75 68 62 60 62 63 59 53 51 49
15 13 11 8 8 10 11 11 9 10 14 16 17 24 27 24 28 29 28 32 31 31 33 30 29 30 27 24 23 21 17 13 13 12 12 13 14 14 17 19 17 18 20 17 20 27 25 23 24 24 24 24 26 23 23 22 17 44 82 87 90 96 94 98 98 93 96 96 96 93 91 93 92 93 91 88 90 85 79 74 66 60 60 62 60 54 52 50
15 13 9 8 8 8 11 10 9 13 14 14 18 24 23 20 23 25 26 32 31 27 29 28 26 31 32 24 22 23 17 13 15 13 13 14 15 16 18 18 18 18 18 16 18 22 22 21 20 22 22 19 21 22 22 22 15 40 84 92 92 95 89 95 99 93 93 94 95 96 93 96 95 93 92 90 92 93 91 89 84 73 61 57 57 55 52 51
15 13 10 8 6 8 11 9 11 15 13 13 19 23 22 18 20 25 28 35 37 32 27 25 22 25 26 17 15 18 14 14 15 13 14 15 15 17 17 19 22 21 20 19 17 17 18 18 16 16 19 17 17 18 19 21 18 36 72 83 88 95 90 94 98 93 93 93 92 94 97 98 95 93 95 91 91 94 92 92 95 89 73 61 56 56 53 50
15 13 12 9 6 8 9 10 16 15 11 15 19 20 22 17 14 22 34 42 42 36 26 19 17 17 15 12 11 12 13 14 14 14 15 14 16 17 17 20 21 21 24 21 17 20 19 16 14 12 15 16 15 17 17 18 20 28 48 62 73 86 91 96 98 93 97 99 92 91 98 97 92 93 95 93 93 93 91 91 91 90 86 72 59 56 55 52
15 14 15 13 8 6 9 16 19 13 11 16 18 19 20 15 14 22 38 44 34 25 18 13 13 12 10 12 12 13 17 18 15 15 15 14 15 15 17 22 20 19 24 24 22 23 20 15 13 12 14 14 15 17 15 17 23 23 31 48 62 77 91 97 97 94 96 98 93 90 92 94 95 93 89 91 96 91 88 92 89 87 90 79 62 57 56 54
15 14 16 19 14 8 12 16 15 13 14 15 17 19 15 12 14 19 35 42 27 15 13 12 11 9 10 12 12 14 19 19 16 15 17 17 15 14 16 22 21 18 20 25 27 24 18 14 15 14 12 13 15 15 14 17 21 21 32 53 66 78 92 94 92 95 94 92 96 94 89 93 99 93 82 86 96 93 86 88 89 88 90 82 66 58 56 54
15 14 16 22 20 15 14 15 16 16 13 13 16 14 11 13 18 27 38 34 18 12 11 10 9 7 9 11 11 13 15 17 18 16 15 16 15 14 16 20 21 19 19 22 25 25 19 16 19 17 12 14 14 12 15 14 16 32 52 65 71 79 86 83 83 92 92 89 99 99 89 92 99 94 86 86 92 94 87 82 83 87 88 83 73 63 55 53
16 14 14 19 21 19 16 17 19 15 10 12 13 10 11 15 22 38 46 31 14 12 11 9 8 8 10 11 12 15 14 15 19 16 14 15 14 14 16 20 21 18 19 20 22 22 18 18 21 16 13 15 12 13 14 9 21 49 66 67 67 70 73 73 79 90 94 91 97 97 89 91 97 96 96 95 93 89 82 75 74 80 84 81 76 70 59 53
15 13 12 15 20 22 20 19 14 10 11 12 10 9 13 26 44 51 41 26 15 12 10 9 8 9 12 12 12 15 14 14 18 17 16 16 16 16 16 18 21 22 25 26 25 22 19 23 26 20 18 15 10 12 10 15 38 57 64 65 65 70 74 82 90 93 94 92 91 90 87 89 94 95 96 93 83 73 71 72 70 72 80 79 75 74 65 54
15 11 11 13 20 25 22 17 10 10 13 9 8 14 18 38 67 61 31 17 14 12 10 9 9 11 13 13 13 15 15 16 17 16 18 20 22 26 22 20 26 32 34 31 26 24 21 22 24 25 27 18 12 17 19 35 58 62 64 68 71 81 87 92 96 93 94 92 86 86 86 91 94 88 86 84 70 61 63 67 67 68 74 78 77 76 71 58
14 9 10 12 18 22 18 13 11 11 11 8 13 30 39 40 45 45 33 20 13 10 10 9 10 13 15 16 16 16 17 16 17 18 20 24 26 28 25 26 30 32 36 35 27 24 21 19 18 21 26 19 17 29 38 52 66 68 71 74 81 94 96 95 95 93 93 86 80 86 88 92 91 73 68 75 69 63 62 59 60 63 67 75 75 72 74 66
12 9 9 12 17 18 15 13 12 12 10 12 22 42 59 46 26 34 38 23 10 10 11 11 12 14 17 18 17 17 17 16 18 20 21 24 28 29 28 30 28 23 30 33 27 26 26 25 22 19 21 20 18 33 52 67 74 72 71 71 82 96 95 94 94 89 87 80 78 88 89 90 86 66 58 60 59 59 61 58 56 57 60 69 70 66 74 73
11 9 9 14 17 15 15 14 14 16 11 16 31 39 44 37 30 38 35 20 13 12 9 11 14 15 15 18 17 17 18 17 20 24 26 31 35 34 32 29 23 21 28 32 29 29 30 29 26 20 20 21 20 25 40 61 70 62 57 58 67 80 84 88 88 83 84 88 89 86 87 93 85 68 61 58 54 54 57 59 56 55 61 65 66 64 70 75
11 11 11 16 16 14 15 13 16 18 13 30 52 48 37 37 41 39 25 16 14 10 9 13 18 18 18 22 20 16 18 18 21 27 29 32 34 33 31 26 24 24 27 30 29 29 31 31 26 22 21 23 26 23 24 50 67 50 41 50 56 63 71 74 73 73 81 93 98 90 85 91 78 62 68 74 67 59 57 62 59 59 67 68 65 63 64 72
13 15 16 18 18 18 15 11 14 14 21 49 60 47 44 46 40 30 21 18 14 9 12 15 18 20 20 24 24 19 17 17 23 28 28 28 29 31 31 27 25 21 20 27 28 28 33 32 25 26 26 23 27 26 21 42 66 54 45 57 54 45 51 57 54 58 73 80 85 88 86 85 70 57 71 84 78 68 63 63 62 62 69 69 64 62 62 69
17 22 25 23 20 19 14 10 11 13 33 58 50 40 49 43 28 28 28 24 17 13 16 17 16 17 19 22 24 22 19 18 22 26 26 28 27 27 27 23 21 18 19 24 23 24 30 32 29 30 31 26 24 27 22 28 42 40 42 56 53 37 36 48 48 49 62 68 74 88 92 87 73 62 75 85 79 74 69 64 63 63 67 67 62 61 61 64
27 31 29 26 20 19 17 10 9 24 51 65 56 51 52 37 26 30 26 21 18 15 17 18 15 15 19 21 20 20 19 19 24 29 30 29 27 24 22 19 17 16 20 23 24 27 28 30 35 35 34 31 26 30 34 32 28 22 28 43 51 49 40 39 48 51 51 59 73 86 89 85 78 75 87 92 85 79 73 69 67 63 64 64 58 59 60 60
35 34 26 23 22 20 17 10 18 41 51 50 55 56 43 32 34 35 28 23 18 13 13 16 14 15 20 22 19 19 19 19 24 31 31 26 25 23 19 18 17 16 22 23 22 30 32 34 40 38 34 33 33 39 45 45 36 30 37 44 49 59 49 30 39 49 48 56 69 76 78 79 81 89 99 100 94 88 77 72 71 64 62 62 56 58 61 58
40 32 23 22 23 20 17 18 33 50 41 34 51 53 35 29 31 31 30 23 15 10 10 14 15 14 18 22 19 18 21 23 24 28 29 24 22 21 18 19 16 16 24 24 20 31 37 37 40 39 38 41 45 46 43 45 46 44 54 63 64 67 53 30 29 38 46 59 68 68 68 74 81 89 99 101 98 95 83 74 74 68 62 61 59 60 61 58
44 24 21 23 22 23 24 26 36 47 42 38 46 42 31 29 28 27 27 22 15 10 9 14 17 17 19 21 18 18 24 27 26 28 28 21 20 20 17 19 18 16 21 22 21 26 30 35 44 49 48 49 50 44 38 42 45 46 59 72 73 61 44 31 33 41 46 54 67 69 62 70 85 86 91 100 99 98 90 78 75 73 65 62 62 61 61 60
34 18 21 21 22 26 28 38 47 45 40 38 35 29 28 33 32 26 21 16 12 9 9 13 16 18 21 20 18 24 30 29 24 24 22 18 21 21 17 18 21 19 21 22 20 26 40 52 58 59 56 52 49 45 43 42 40 45 57 66 71 67 58 47 38 40 40 41 60 69 53 60 84 85 85 96 99 100 98 88 81 78 71 66 65 63 62 63
27 22 23 20 27 30 29 41 49 41 39 39 32 25 24 26 28 24 19 15 13 9 9 11 12 14 17 16 18 23 28 26 22 22 23 21 19 19 21 22 22 22 23 20 19 29 46 55 58 66 75 71 56 48 47 44 45 51 55 64 75 80 82 69 48 42 41 44 61 62 49 61 82 83 84 91 97 100 100 98 93 88 84 78 74 72 70 71
43 43 38 29 27 27 29 39 42 41 48 44 30 27 26 22 23 21 18 17 14 10 9 10 12 11 10 16 22 23 24 23 20 22 26 23 19 23 28 27 22 22 22 22 25 24 26 47 63 70 83 82 62 53 53 49 52 57 56 66 78 84 89 79 58 46 40 51 66 58 58 79 84 81 86 88 94 101 99 100 99 96 95 92 88 89 87 87
52 46 50 46 33 27 32 40 40 42 48 43 39 42 35 24 22 19 17 19 17 12 10 10 11 11 13 20 26 26 27 24 22 25 26 23 25 27 27 25 23 26 33 41 44 27 23 54 74 66 71 74 63 64 66 57 58 64 64 73 81 88 93 75 55 50 47 62 81 74 75 91 85 81 89 89 94 102 100 100 101 99 100 99 97 97 95 96
48 40 55 64 53 45 47 50 50 50 51 52 54 50 36 29 29 21 14 14 13 11 11 10 12 13 16 22 26 28 28 25 27 31 28 27 30 27 26 27 26 35 52 58 52 45 46 64 77 78 77 70 68 79 77 64 69 75 75 83 86 89 93 80 73 83 83 80 89 92 94 98 92 90 92 91 96 101 100 100 99 99 100 100 99 98 96 96
56 52 63 66 57 59 63 58 60 65 60 54 51 44 35 36 36 26 15 10 11 13 12 12 14 13 16 24 26 26 30 31 32 31 28 32 36 32 32 30 25 40 59 52 44 54 57 52 60 75 72 60 66 79 71 63 75 82 82 89 92 91 92 92 93 100 92 76 76 90 99 98 97 97 95 96 99 100 100 100 99 99 99 98 99 99 97 97
65 62 62 59 55 63 65 55 61 70 62 54 55 47 38 40 43 33 21 14 13 14 14 15 18 16 18 23 22 24 32 32 30 29 29 33 36 34 34 28 23 36 45 34 40 60 58 44 46 57 57 57 63 66 66 71 79 82 85 90 94 93 93 95 97 95 89 82 83 94 98 97 98 98 97 99 99 97 97 95 94 96 97 96 97 98 98 98
77 75 71 67 62 68 68 61 66 67 56 57 62 51 41 47 48 37 25 19 16 17 18 17 18 16 18 28 33 33 34 31 28 31 33 32 30 30 32 27 25 34 34 23 35 54 50 41 52 63 58 55 60 61 65 75 78 77 79 84 92 95 94 94 92 89 89 89 90 93 95 96 98 97 98 99 96 94 93 90 91 94 95 97 97 97 98 97
81 79 80 80 75 80 80 72 70 62 55 60 58 50 49 50 46 41 35 25 17 17 17 14 17 19 23 39 44 31 33 42 36 31 33 29 26 31 33 28 26 33 34 26 28 37 35 36 63 84 71 57 63 66 65 71 77 78 76 78 88 94 95 95 92 91 94 90 87 91 94 94 94 93 96 96 93 95 95 93 95 96 96 97 97 98 98 97
72 68 77 82 78 82 81 75 74 61 55 65 64 58 58 51 46 47 45 35 23 18 18 14 19 26 27 36 36 21 31 50 39 30 35 28 22 29 28 23 25 27 30 30 27 32 40 44 62 84 78 64 64 66 68 72 71 72 77 78 85 94 96 96 93 92 96 96 93 94 94 94 95 94 95 96 97 99 99 98 98 98 98 99 99 99 99 98
76 73 81 80 73 81 84 81 78 58 49 63 67 59 58 53 48 45 44 43 29 15 17 17 22 32 30 27 26 19 27 40 29 25 33 26 22 29 26 25 28 24 28 33 26 37 57 52 51 69 72 66 68 68 70 70 64 70 78 73 77 94 99 97 95 90 91 98 100 96 94 97 98 95 96 99 100 100 100 100 100 99 99 99 99 99 99 98
Wind_Speed
14 14 14 14 14 14 14 13 13 12 12 11 11 11 10 10 10 10 10 10 11 11 11 10 11 11 12 12 14 15 18 18 15 9 6 7 5 3 2 5 13 14 12 11 10 9 7 4 4 6 5 2 0 1 2 2 1 2 2 2 1 2 3 3 4 3 2 2 4 4 3 6 7 2 1 3 5 5 5 5 6 7 7 11 17 23 24 23
16 16 16 16 16 15 15 15 14 14 13 12 12 11 11 11 10 10 10 10 10 10 10 10 10 11 12 12 14 16 17 17 12 9 7 6 5 4 7 10 14 14 12 9 9 9 7 3 5 6 4 1 1 0 2 1 1 1 2 2 1 3 2 2 4 4 3 3 5 4 2 5 7 5 2 4 5 5 6 5 7 9 9 13 18 22 22 23
17 17 17 17 17 17 16 16 16 15 15 14 13 12 11 11 10 10 10 10 10 10 10 9 10 10 11 13 15 16 15 12 5 4 4 7 3 7 10 11 13 13 9 5 6 8 6 7 9 6 4 1 1 1 1 0 1 2 2 1 3 3 2 2 3 6 5 6 7 3 1 3 4 3 2 5 7 5 6 6 6 8 9 11 13 18 21 20
18 18 18 18 18 17 17 17 16 16 15 15 14 13 12 11 11 10 11 11 11 11 10 9 10 11 12 14 15 14 11 5 1 2 6 9 2 11 13 11 11 11 9 4 5 8 7 9 8 4 4 1 3 0 2 2 2 1 2 3 2 2 1 2 2 4 4 6 7 4 3 4 2 0 3 9 8 3 5 7 9 11 12 13 12 14 18 17
18 18 18 18 18 18 18 17 16 16 16 16 15 14 13 13 12 11 11 10 11 10 10 9 10 11 11 13 13 11 7 3 1 4 5 8 3 11 14 11 11 12 10 6 7 8 7 6 5 4 3 1 1 1 2 4 3 1 2 2 1 1 1 3 2 2 4 6 6 6 5 4 1 2 2 9 7 3 5 7 11 14 14 15 14 14 15 14
18 18 18 18 19 19 18 17 17 17 17 16 15 14 14 13 13 12 12 11 10 9 9 8 9 9 10 12 10 7 3 2 3 4 4 5 3 9 15 11 11 13 11 8 8 7 5 5 4 3 2 1 2 3 3 3 4 1 3 1 3 1 1 3 2 2 2 4 3 4 5 3 3 3 1 3 3 2 5 6 9 12 14 17 16 14 12 11
18 18 18 18 18 18 18 18 17 17 17 17 15 15 14 14 13 12 12 11 10 9 8 7 7 8 10 11 7 3 3 1 3 3 4 3 3 6 14 12 11 13 11 8 8 6 5 5 4 3 3 1 2 4 4 3 5 3 2 2 4 5 4 4 3 2 5 6 2 1 5 4 4 3 1 0 2 1 7 8 9 11 14 16 14 12 11 11
18 18 17 17 18 18 18 18 18 18 18 18 17 16 15 14 13 12 12 11 10 8 7 6 6 7 10 8 3 3 3 1 4 4 4 2 2 6 13 12 11 11 10 8 7 6 5 6 4 3 2 1 2 3 4 3 3 6 2 2 4 5 5 5 6 5 7 7 2 1 5 3 3 2 1 1 2 1 9 10 10 11 12 12 11 11 11 10
18 18 17 17 17 18 18 18 19 19 19 19 19 18 17 16 13 12 11 10 9 7 6 4 4 6 8 6 2 4 1 2 5 4 3 2 1 6 11 11 11 11 10 7 5 6 4 4 5 4 2 2 1 2 4 3 3 5 3 4 5 5 4 5 6 5 3 3 2 3 5 3 3 1 1 2 1 4 10 12 12 12 11 10 10 10 10 9
19 18 18 18 18 18 18 19 19 19 20 20 20 20 20 17 14 12 10 9 7 6 4 3 3 5 6 4 4 3 2 2 4 3 2 3 2 5 11 11 11 12 9 7 7 8 5 5 4 3 2 2 2 3 3 5 2 4 7 7 8 6 5 4 5 4 3 3 2 4 5 2 3 2 1 1 2 8 11 12 12 12 11 10 9 9 10 10
20 19 19 18 18 19 19 19 19 20 21 21 21 22 22 20 15 12 9 7 6 5 3 2 3 4 3 3 5 2 3 1 5 3 3 5 4 2 7 9 10 12 11 7 10 12 8 7 4 2 2 1 2 3 1 2 4 8 8 8 7 6 7 5 5 4 1 1 1 4 6 3 3 3 1 4 3 10 12 13 12 11 10 9 10 8 8 9
21 20 19 19 19 19 19 20 20 21 22 22 23 24 24 22 16 11 8 5 5 4 3 2 3 2 2 3 3 4 2 2 5 4 5 6 4 2 3 6 9 12 11 8 9 15 12 6 4 2 1 0 2 3 1 2 5 6 4 5 3 4 5 4 3 2 1 1 2 4 5 1 1 2 1 4 5 11 11 13 12 11 10 8 9 7 6 8
21 21 20 20 20 20 20 20 21 21 22 22 24 25 25 22 15 9 5 3 3 2 1 2 3 2 2 1 2 2 1 3 7 8 8 7 5 4 5 5 6 9 10 9 6 10 15 9 2 1 3 1 1 2 3 2 3 3 2 3 2 1 3 2 1 1 1 2 1 1 3 3 2 1 2 3 5 11 10 12 11 9 9 8 8 7 6 8
22 21 20 20 20 20 20 20 21 21 22 23 24 25 23 18 12 5 1 1 2 1 0 1 3 2 1 2 3 1 4 7 8 8 7 7 6 5 6 4 5 7 9 9 4 3 11 13 4 2 2 1 2 1 3 2 2 3 2 2 1 1 1 1 1 2 1 1 2 0 2 4 2 1 1 4 2 11 12 11 10 9 8 8 8 8 7 8
22 21 21 20 20 20 20 20 21 21 22 23 24 23 19 13 8 3 1 1 1 1 1 1 2 1 2 3 2 4 7 7 7 6 3 5 6 4 4 5 7 7 8 9 4 2 5 7 3 1 3 1 2 2 2 2 2 2 1 2 2 1 1 0 2 2 1 2 3 1 1 2 2 2 1 4 1 10 12 10 10 9 9 9 8 8 7 7
22 22 21 20 20 20 20 20 21 21 22 23 24 21 14 10 7 3 2 2 2 2 1 2 1 1 2 2 4 5 4 4 8 6 3 5 5 2 1 4 5 6 8 6 4 3 3 2 1 1 0 1 3 4 2 3 2 1 2 2 1 1 1 0 2 1 1 4 3 2 1 2 2 4 2 3 3 9 10 10 10 9 9 9 7 7 7 5
22 22 22 20 20 19 19 20 20 20 22 23 23 18 11 9 6 3 3 3 2 2 1 1 0 1 1 2 4 4 4 7 10 6 4 5 5 4 2 3 3 5 6 3 3 2 1 1 0 1 2 3 2 3 3 1 2 2 1 1 1 2 2 0 2 1 0 3 3 1 2 2 2 5 2 1 4 9 9 10 11 9 8 8 7 7 6 6
23 23 22 21 20 19 19 19 18 20 21 22 22 15 10 9 5 4 4 4 2 2 1 2 1 2 2 3 3 5 9 10 8 4 4 4 4 5 3 1 3 5 4 2 1 1 1 2 2 1 3 3 1 3 3 3 3 3 2 1 1 2 2 1 0 2 2 3 3 3 3 2 3 5 2 2 2 7 8 8 9 9 9 8 7 7 6 6
23 23 23 21 20 18 18 18 17 19 20 21 20 12 9 8 4 3 2 3 2 1 1 3 1 2 3 6 6 8 9 8 6 3 2 1 1 2 1 3 3 4 4 3 2 2 2 2 3 2 1 1 4 4 4 5 5 5 3 2 1 1 1 1 1 2 3 2 2 3 4 4 6 4 4 3 1 3 6 5 6 8 8 7 7 7 7 7
24 24 23 21 20 17 17 16 16 18 18 19 19 9 6 7 4 3 3 0 1 2 3 3 2 1 5 6 6 7 7 5 3 1 1 1 3 4 3 5 5 5 4 2 1 2 3 3 0 3 4 4 4 5 5 4 2 3 3 1 2 2 1 1 2 4 2 2 2 2 2 5 8 4 5 8 5 4 5 5 6 7 7 7 7 8 8 8
25 25 23 21 19 17 16 15 15 16 15 17 16 6 2 4 3 4 5 4 5 7 7 6 5 5 7 7 7 4 3 2 2 2 1 1 2 3 2 4 6 4 2 1 1 3 4 3 3 6 6 4 4 5 5 3 2 1 3 3 3 2 2 2 3 5 1 1 3 3 2 3 5 4 4 9 9 8 8 8 8 9 8 6 8 9 9 7
26 25 24 21 18 16 15 14 14 13 12 14 11 6 3 3 3 5 3 4 7 5 6 6 3 5 9 10 9 2 2 2 4 5 1 2 4 1 0 4 5 0 2 2 2 5 5 1 7 8 5 5 4 5 3 3 3 1 2 3 2 1 3 2 2 4 2 1 3 3 4 2 1 1 1 5 7 7 7 7 7 9 8 7 8 9 9 7
27 26 24 20 17 15 14 13 13 10 10 12 7 5 2 7 8 2 3 1 6 4 2 2 1 4 6 5 5 5 3 1 2 5 3 4 2 1 3 3 4 1 2 3 2 1 2 5 7 5 6 6 2 4 2 1 4 2 2 3 2 3 4 1 2 3 2 2 1 3 3 1 1 2 3 5 5 4 4 5 5 6 9 10 10 9 8 9
28 26 23 20 16 14 13 12 9 6 10 11 4 4 3 12 13 2 4 1 4 5 4 3 1 3 3 1 4 6 2 2 2 3 3 5 2 1 3 2 4 1 2 3 6 4 5 8 5 3 4 5 3 3 3 2 4 3 4 4 3 4 4 2 5 4 3 3 2 4 2 2 2 3 5 5 6 6 4 4 5 5 7 8 8 8 9 10
28 26 23 20 14 12 12 9 4 5 11 8 2 1 7 14 16 2 4 3 2 6 4 2 1 2 2 1 3 3 2 1 3 3 3 6 4 2 1 2 3 1 4 4 6 3 6 7 5 3 4 4 4 4 3 5 3 4 5 8 6 6 5 6 10 6 1 1 2 4 2 3 4 6 7 5 6 8 6 5 7 6 6 6 8 9 9 9
28 26 22 19 14 12 9 3 3 8 10 3 3 4 9 16 17 1 5 5 2 5 4 1 1 1 2 2 0 2 4 2 4 3 4 6 5 3 0 1 1 1 3 4 3 2 4 4 3 4 5 5 4 5 5 6 4 2 5 7 8 7 8 11 12 7 2 2 3 5 4 2 1 6 10 7 8 11 8 7 8 6 6 7 8 9 8 9
29 25 21 19 15 12 6 1 5 8 4 1 3 8 12 18 14 2 3 6 2 3 2 2 1 1 1 1 1 3 1 4 3 1 3 6 3 3 1 3 2 1 2 3 2 2 3 3 1 3 2 4 4 5 6 8 6 4 6 4 8 8 9 12 9 4 1 1 1 4 3 1 2 5 8 9 8 11 11 10 9 7 7 8 9 10 10 10
28 24 20 18 15 12 6 4 6 4 2 4 7 10 16 17 6 3 4 4 1 1 1 3 2 0 2 1 3 3 2 2 1 2 1 4 3 3 2 4 3 3 2 4 1 4 3 3 4 4 4 3 5 6 7 10 6 3 1 6 7 7 8 8 5 2 2 2 0 5 4 1 4 3 4 10 11 12 14 15 13 9 9 8 8 10 11 10
28 24 20 18 15 10 6 6 5 3 4 6 8 13 16 10 2 4 4 2 1 1 1 1 2 2 3 3 3 3 2 1 1 4 2 4 1 2 1 5 5 2 1 3 3 5 3 5 6 5 4 4 6 6 8 11 4 2 10 13 10 9 8 6 3 2 2 1 2 6 6 3 4 3 3 7 10 14 15 14 14 11 10 10 9 9 10 9
28 23 20 17 13 8 5 7 5 3 4 6 10 14 10 4 4 4 2 1 1 2 1 1 1 1 3 2 4 5 2 2 2 3 3 2 2 3 1 2 3 3 1 3 2 6 5 3 3 3 3 6 5 4 5 10 9 8 12 12 9 7 6 5 3 4 3 3 3 8 11 5 3 3 5 8 13 18 16 12 13 12 10 11 9 7 9 9
28 23 19 16 11 6 3 4 2 1 4 8 12 10 4 2 4 5 1 2 2 2 3 2 2 2 4 2 2 4 2 3 4 3 2 3 4 4 3 1 3 4 4 5 3 5 7 4 0 3 4 3 3 1 1 6 10 9 7 6 5 3 3 4 3 3 1 5 4 5 10 7 3 5 5 9 14 15 15 14 16 16 13 11 9 7 8 9
28 22 17 13 11 8 6 4 3 5 7 9 9 5 4 2 3 2 2 3 2 2 1 2 2 2 3 3 1 2 2 2 3 3 2 2 3 2 1 1 1 3 3 3 3 5 5 2 3 5 3 2 3 4 4 3 4 5 6 6 4 1 2 2 1 1 2 5 3 4 7 5 6 9 7 9 12 10 10 13 16 18 15 12 11 10 8 8
27 21 14 10 10 10 8 6 6 6 7 6 4 4 6 4 0 2 2 2 1 2 1 1 2 2 4 4 2 2 1 1 2 4 1 1 2 2 3 2 2 2 0 2 1 4 4 4 7 6 4 5 4 4 3 3 2 3 6 5 4 3 2 1 1 1 2 4 2 6 7 2 4 7 9 11 13 12 11 11 12 16 16 14 13 11 8 8
27 18 11 9 9 9 8 7 7 5 5 3 3 4 4 3 2 2 2 3 3 3 2 2 3 3 4 3 2 2 2 1 2 3 3 3 4 3 4 4 1 2 2 1 0 2 2 3 6 5 3 6 5 2 4 5 4 3 2 2 4 5 3 3 3 2 2 2 1 4 4 3 3 4 6 8 9 9 10 9 9 12 13 12 11 10 9 9
25 14 8 8 6 5 6 7 6 3 1 3 5 4 2 2 2 1 2 4 2 3 4 3 4 4 4 3 3 1 1 1 2 4 3 3 2 1 2 3 3 2 4 3 1 1 3 2 6 5 4 5 7 3 2 6 4 2 0 3 1 4 4 3 3 4 3 1 1 2 3 4 4 5 4 3 3 4 8 9 10 11 11 11 10 10 9 9
21 10 5 5 2 2 4 6 6 4 2 4 6 3 2 3 2 2 3 2 1 3 4 4 4 4 3 4 3 3 1 1 3 3 2 2 0 2 2 3 3 1 3 3 0 0 3 2 7 7 5 6 7 3 2 5 4 1 2 1 4 2 4 3 1 1 3 1 2 2 3 4 3 5 6 5 3 2 6 10 11 12 14 15 13 11 10 9
20 9 3 3 1 4 5 6 8 5 3 6 4 1 3 2 3 4 2 1 1 1 2 2 1 1 1 2 3 4 3 2 2 3 2 2 1 2 3 4 2 1 1 3 1 1 3 1 6 5 6 7 6 1 2 4 3 3 1 4 3 2 3 3 2 1 2 1 3 2 4 5 3 2 6 9 6 2 4 9 11 12 16 17 16 13 11 10
18 7 3 6 2 6 7 8 8 5 5 5 2 2 2 1 3 4 2 1 1 2 3 2 1 1 2 1 2 4 2 2 2 2 1 2 1 2 2 3 2 2 2 4 2 0 3 1 6 4 3 7 7 4 2 7 5 2 3 2 2 1 2 2 2 1 0 1 3 3 4 3 2 2 7 11 9 6 2 6 9 12 15 16 16 14 12 11
11 4 3 7 3 8 11 9 6 5 5 3 0 2 1 2 4 4 3 0 0 2 1 2 1 1 2 3 2 2 2 1 0 1 1 1 0 1 1 1 2 4 5 4 3 0 2 2 3 5 5 5 6 6 3 7 8 4 2 3 3 3 2 2 1 3 1 1 3 3 3 2 2 3 8 10 11 9 4 5 7 9 11 12 13 13 12 11
5 3 1 6 4 11 12 7 5 5 3 1 2 2 2 3 5 5 5 4 2 2 1 3 2 2 2 2 2 1 1 1 2 2 0 1 0 1 2 1 2 4 4 4 3 1 2 3 0 6 7 3 2 1 1 1 3 5 4 4 4 2 1 2 2 2 3 1 2 1 3 3 1 4 7 9 11 10 6 4 5 5 7 8 9 10 11 11
4 3 1 6 3 12 9 5 3 3 1 1 2 2 3 2 4 5 3 5 4 2 2 4 4 3 3 2 1 2 1 2 1 2 1 1 1 1 2 1 1 3 3 5 4 2 1 2 2 2 3 2 3 4 0 2 1 1 2 3 3 3 0 0 3 2 2 1 2 2 2 4 3 4 7 8 8 9 7 2 3 3 5 6 7 8 10 10
3 2 1 5 4 11 5 3 1 1 2 1 2 3 3 2 3 5 3 2 3 1 2 2 3 3 3 2 2 2 2 2 1 1 2 2 2 3 2 1 1 1 3 2 2 1 2 3 3 1 1 3 7 7 4 2 1 2 2 4 3 1 2 2 2 1 1 1 3 1 1 4 2 5 7 7 8 9 8 4 2 2 3 5 5 6 7 7
2 1 3 3 7 8 5 2 2 3 1 3 2 3 3 2 2 3 3 2 1 0 1 0 1 2 2 2 2 3 3 2 1 1 1 2 3 5 4 4 2 1 4 2 2 1 2 3 3 1 3 5 7 6 4 3 5 4 2 4 3 1 2 3 3 1 1 2 2 1 3 3 3 6 6 6 8 9 8 8 5 4 3 3 3 4 4 5
0 4 3 3 5 7 3 1 2 1 3 3 3 3 3 2 2 2 3 3 1 1 1 1 1 1 2 2 3 2 3 2 1 1 1 2 2 3 4 4 2 1 2 1 1 1 1 1 3 3 4 5 6 5 4 4 4 2 2 4 3 4 4 3 2 2 1 2 0 2 3 3 3 6 7 8 10 10 9 9 8 7 6 5 5 5 5 5
2 2 3 4 1 4 2 3 4 3 2 2 3 4 4 2 3 5 5 5 3 4 2 1 1 2 2 3 4 3 2 2 2 1 0 1 2 4 3 4 2 1 1 3 3 3 2 2 3 4 2 1 1 2 2 1 1 1 2 4 5 8 8 3 1 2 1 2 1 1 3 3 4 7 10 10 9 9 9 9 9 8 8 6 5 5 6 6
2 1 3 5 4 4 1 0 3 3 1 1 2 3 2 3 5 4 5 3 2 3 2 1 1 4 3 3 4 3 2 2 1 2 1 1 3 3 4 5 2 2 2 1 4 4 4 2 2 5 6 4 5 6 4 2 3 1 3 5 5 7 8 4 1 2 1 2 2 1 3 4 6 8 9 9 8 8 8 8 8 8 8 7 4 3 4 5
2 1 1 2 3 3 3 3 4 2 1 2 0 2 1 2 5 4 1 2 0 2 2 1 2 3 2 3 4 1 1 2 2 2 2 2 3 4 4 4 2 5 4 2 3 3 4 2 0 6 5 3 4 3 4 0 4 3 1 4 5 5 8 8 4 2 1 1 2 1 1 2 5 7 9 7 6 7 7 7 7 6 7 6 5 5 6 5
1 1 1 1 1 0 1 2 3 2 2 2 2 2 1 2 4 4 3 3 2 1 2 1 2 1 5 5 4 3 1 2 2 0 2 2 2 3 5 4 3 5 4 3 2 3 5 1 1 4 1 1 1 2 4 1 3 3 2 3 4 4 8 8 2 3 1 2 2 1 2 2 4 7 8 7 6 7 6 5 5 5 6 6 5 6 7 7
1 1 1 1 0 3 3 3 2 2 3 2 1 1 0 1 2 2 3 3 4 2 4 2 4 3 4 4 5 4 3 3 1 3 3 2 1 1 3 2 3 4 4 3 3 2 4 1 1 3 3 1 3 5 4 1 1 3 4 4 3 2 6 6 1 3 3 1 2 1 2 2 4 5 7 6 5 4 3 4 5 5 5 6 5 6 7 6
1 1 2 3 2 2 2 2 1 1 3 2 0 2 1 1 2 3 3 2 3 3 2 5 7 4 3 4 6 5 7 8 6 5 5 4 1 1 1 2 3 4 5 2 2 2 3 1 1 4 4 1 5 4 3 2 1 3 4 4 3 1 3 4 2 2 2 1 3 3 2 0 2 4 6 5 3 3 5 6 6 4 5 5 5 6 6 6
2 2 0 2 2 2 2 2 1 2 2 1 1 2 2 2 3 3 4 5 7 5 4 8 7 3 3 3 5 6 8 9 8 8 9 7 4 4 2 3 5 2 4 1 1 2 3 2 2 5 4 2 4 1 1 3 3 2 2 3 3 3 0 2 2 1 0 2 3 5 3 1 3 4 5 5 4 6 8 7 5 4 5 5 5 6 7 6
4 1 1 2 0 2 1 2 2 1 2 2 1 2 3 4 3 2 3 5 5 6 6 9 8 4 3 4 7 8 9 9 8 6 7 5 4 4 2 3 6 4 1 2 0 2 3 4 2 3 3 3 4 0 1 3 3 2 3 1 2 1 0 2 1 1 1 2 2 2 2 3 4 3 4 5 6 7 6 5 5 4 4 5 5 6 7 6
Wind_Direction
12 12 11 11 11 11 12 10 7 5 6 5 5 5 1 1 357 356 354 353 356 355 357 354 349 346 340 337 332 330 330 330 327 318 266 268 296 236 207 160 165 160 147 137 142 138 117 116 140 142 128 119 58 15 180 171 104 59 75 67 31 185 192 188 174 175 143 155 168 174 186 138 132 138 116 92 77 90 81 62 75 59 72 104 120 131 133 135
15 15 14 15 13 14 15 13 12 9 8 7 9 8 4 2 356 355 350 347 348 347 351 348 349 345 338 337 332 332 332 330 320 294 272 288 300 201 160 151 162 164 154 143 153 141 116 143 151 128 101 63 316 248 187 193 104 125 98 72 267 212 207 212 157 153 158 159 165 172 172 143 146 148 147 128 121 108 92 85 87 83 92 106 119 128 133 136
15 16 15 15 15 16 17 16 16 14 11 9 7 6 3 359 352 349 344 340 340 343 349 345 344 339 337 338 335 337 332 328 327 289 332 351 295 187 159 152 164 172 169 155 165 150 132 156 151 121 81 45 292 180 170 245 175 164 102 103 256 228 242 299 177 173 174 158 156 165 150 133 146 149 156 136 127 124 128 133 114 113 125 122 125 130 134 137
16 16 14 14 15 17 19 19 19 16 14 10 6 3 358 354 349 342 337 336 336 341 347 343 339 337 341 341 338 338 331 337 27 326 358 7 40 167 161 152 156 171 177 138 136 144 124 136 138 100 82 63 305 349 166 187 178 168 152 189 239 221 258 312 236 194 158 153 153 140 124 138 161 125 140 137 127 152 177 166 146 144 144 136 135 136 138 140
16 16 15 13 13 15 17 18 17 18 17 12 8 2 355 350 344 338 332 329 330 335 342 342 340 341 343 342 339 334 345 61 271 308 1 10 47 165 166 154 148 157 164 128 118 137 122 110 97 64 82 103 308 7 210 188 152 163 231 220 288 175 209 326 295 197 158 150 140 135 138 143 121 34 119 148 149 184 188 175 155 151 152 146 142 141 142 144
14 14 13 12 12 12 14 14 14 16 15 13 9 3 357 348 339 334 328 324 323 328 338 342 341 343 343 342 339 337 22 104 271 316 359 8 46 165 170 166 156 155 162 136 118 128 114 84 70 84 96 41 208 215 246 185 150 214 270 282 15 23 151 340 332 171 138 113 121 147 138 105 99 77 36 162 175 171 151 154 151 148 149 143 141 143 146 149
12 11 10 9 9 10 10 10 10 12 11 10 6 2 356 347 338 328 323 323 320 324 335 342 344 342 346 344 333 353 64 232 291 350 352 1 60 163 174 178 167 164 170 145 121 119 110 103 100 129 116 345 220 223 254 184 173 222 269 90 47 43 67 18 17 73 76 84 348 258 121 101 117 128 348 281 283 180 135 131 137 139 141 140 140 146 149 154
9 8 6 5 5 6 7 5 6 7 6 4 1 358 352 346 337 325 320 321 319 324 333 341 346 344 353 354 344 18 38 306 330 357 358 15 92 164 177 180 175 173 173 163 142 132 123 125 152 159 128 261 196 222 237 154 191 220 227 76 76 64 73 55 53 57 81 111 243 211 117 89 98 120 217 199 300 174 133 126 132 136 140 144 147 151 152 157
7 5 2 1 1 2 2 1 2 2 1 359 357 353 350 344 336 327 318 316 320 322 330 345 345 356 4 359 57 52 339 293 337 347 7 3 45 172 187 188 183 180 167 171 164 147 147 155 184 175 154 244 201 262 225 158 229 209 138 74 89 88 96 91 72 66 104 147 208 142 114 65 77 95 205 194 251 154 133 129 137 142 148 153 154 157 157 160
6 3 0 358 358 358 358 359 358 357 357 355 353 350 347 343 335 325 314 312 319 318 331 0 352 8 8 4 71 80 225 294 343 345 3 344 0 174 198 206 198 188 163 159 175 171 173 179 190 161 151 261 292 304 227 186 205 121 106 88 88 86 86 95 96 106 164 191 214 153 125 70 34 76 157 275 193 150 134 134 145 148 155 160 158 163 164 166
5 2 358 356 356 355 355 356 355 354 353 351 350 348 344 341 334 322 311 308 317 322 336 354 13 19 7 54 88 167 214 3 1 355 340 322 324 206 209 225 216 195 167 153 190 199 186 169 160 98 141 263 306 339 15 146 109 109 114 95 88 93 71 65 101 113 185 201 176 131 105 56 11 84 184 294 190 155 141 142 152 154 159 164 161 166 171 173
4 1 357 356 355 353 354 354 353 352 351 349 349 346 342 339 333 318 302 300 313 325 339 358 22 10 0 74 139 203 198 347 329 308 299 304 302 285 269 257 234 210 188 167 199 208 197 170 95 74 238 280 335 339 28 118 107 121 119 97 126 131 72 39 80 90 231 133 144 133 103 75 317 87 300 300 178 158 146 147 155 159 161 165 165 168 179 179
4 0 358 357 354 353 353 352 351 350 349 349 347 345 340 336 332 320 295 289 305 314 352 14 355 346 18 14 229 215 197 295 300 287 277 283 283 271 285 279 242 230 214 193 197 205 206 208 133 183 244 76 328 277 171 155 104 102 56 94 161 152 53 35 82 315 222 99 312 171 135 198 247 350 326 326 163 156 151 154 156 160 164 168 172 172 182 182
2 0 358 357 354 352 352 351 350 349 348 348 347 344 340 338 340 334 292 278 288 260 112 3 336 0 51 267 247 329 305 297 305 298 270 260 262 253 264 261 220 219 216 211 212 181 203 213 213 243 259 165 201 221 135 110 71 88 57 52 72 54 339 20 157 280 32 77 266 218 144 197 243 296 313 346 158 159 158 162 160 160 164 170 178 177 181 188
0 360 359 357 354 352 351 350 349 348 348 347 346 345 345 351 360 13 112 180 230 172 151 23 347 26 26 295 292 339 314 314 331 329 283 241 231 230 245 233 215 205 205 216 210 134 185 201 195 246 277 238 130 104 85 34 31 85 97 311 356 86 271 77 154 248 59 140 226 286 112 189 258 215 193 354 169 166 163 168 170 166 165 171 180 180 182 192
358 358 359 357 354 352 350 349 349 348 348 347 347 349 354 5 15 40 121 147 170 182 156 65 32 83 82 350 333 345 330 336 340 326 283 245 229 225 193 194 204 199 207 217 197 196 216 189 171 191 194 93 113 106 62 21 357 26 100 231 223 124 255 156 128 281 33 139 194 282 163 165 261 198 182 351 180 173 170 172 177 175 170 172 180 185 183 177
356 355 357 356 354 352 350 350 349 348 348 348 348 354 7 12 26 68 120 110 133 189 164 167 210 39 59 319 335 339 321 320 325 310 268 261 246 234 155 132 149 166 185 184 161 190 210 71 0 288 47 71 118 100 71 0 308 328 50 244 221 159 205 161 115 239 87 157 183 245 194 177 178 173 165 355 166 169 176 179 180 182 178 178 180 185 186 173
353 353 354 355 353 351 351 349 349 348 347 350 352 1 16 16 48 91 116 100 109 176 96 256 192 55 305 302 327 304 305 313 319 301 251 262 257 243 239 116 109 111 89 73 71 57 55 12 39 47 21 41 147 119 121 216 216 213 216 225 271 192 183 167 140 176 158 177 174 157 185 165 137 154 133 26 145 169 184 190 186 185 185 184 184 186 186 181
351 350 351 352 352 352 350 349 349 347 347 354 355 3 20 14 56 93 118 96 46 47 326 291 77 88 262 280 298 298 306 314 312 291 224 201 164 196 191 68 84 82 64 45 3 17 79 30 39 72 25 214 199 179 179 200 189 191 189 135 191 203 180 204 106 109 140 146 149 177 182 145 148 156 135 132 278 204 193 205 201 194 192 189 189 192 187 190
349 348 348 350 351 350 350 348 348 347 350 0 359 2 21 12 21 355 331 128 193 196 240 255 153 198 265 279 299 313 316 306 289 278 115 120 145 127 63 36 36 43 65 121 309 347 76 78 85 208 215 217 214 212 208 205 159 139 131 146 228 173 84 315 116 119 142 132 133 238 231 156 161 164 150 164 209 238 206 210 214 202 199 196 195 194 190 199
348 346 346 347 348 348 349 346 346 347 352 5 12 32 60 22 19 322 326 309 251 207 231 244 193 230 258 262 282 328 353 327 307 308 96 94 83 84 356 22 48 30 347 200 252 0 53 83 231 225 212 189 194 230 248 274 318 89 160 196 243 180 103 355 124 140 180 96 137 198 225 177 160 145 152 170 196 224 214 209 215 208 203 202 201 198 196 198
348 345 343 344 346 346 345 344 343 346 356 8 29 84 133 16 340 261 274 319 285 227 229 248 216 252 262 258 259 242 78 9 330 309 223 113 34 50 263 52 79 178 315 26 12 3 22 273 247 237 197 138 168 226 256 289 277 259 141 155 224 202 108 53 116 128 13 25 134 156 169 191 115 87 183 194 207 228 223 216 217 209 204 203 204 202 196 188
347 343 341 341 344 343 342 342 339 345 3 4 28 110 107 9 1 263 187 306 295 292 264 245 197 263 283 275 221 161 106 68 305 296 213 139 35 127 132 73 102 151 3 67 127 60 352 252 240 222 162 137 187 227 186 294 276 238 147 140 205 186 136 111 151 125 22 6 73 102 135 235 334 356 292 249 244 264 245 231 233 217 207 204 203 199 190 184
347 343 340 338 340 341 339 336 337 356 1 354 30 112 19 2 5 46 165 5 303 299 275 238 245 234 270 322 156 141 114 186 196 279 205 130 82 126 146 135 112 71 278 155 140 153 248 248 211 161 155 157 209 244 156 176 272 262 199 188 187 170 165 138 134 127 28 6 68 95 94 285 224 212 252 248 250 262 250 230 242 237 217 204 199 198 190 186
348 343 338 337 338 338 336 335 350 5 348 345 134 48 347 350 352 11 152 34 326 295 293 260 314 242 262 5 152 160 85 205 223 239 187 142 134 119 165 171 113 312 244 149 123 165 261 254 177 190 231 176 195 247 197 179 236 299 235 206 177 160 158 129 130 133 104 245 180 143 174 253 205 203 222 222 231 242 238 223 229 232 213 198 194 196 193 189
348 343 338 336 335 336 338 349 13 345 338 338 179 313 332 340 343 352 140 41 337 295 320 302 0 334 298 343 156 85 59 319 257 209 166 166 156 107 39 278 47 277 210 146 132 195 262 266 148 189 224 167 178 249 223 172 162 290 252 200 167 156 148 143 145 145 177 212 177 182 210 267 233 218 215 203 218 231 229 224 227 224 207 198 194 192 187 185
348 344 339 334 334 339 338 292 334 332 330 247 272 311 326 335 337 178 124 30 347 287 308 280 335 66 283 287 80 82 72 288 289 99 153 176 171 70 57 277 338 273 189 106 15 261 227 275 266 164 153 139 171 239 224 165 145 247 257 174 155 153 144 146 143 120 103 43 89 196 203 343 292 243 211 190 206 230 230 228 228 222 211 204 197 192 184 182
348 344 337 333 333 333 320 294 312 309 244 280 298 317 328 332 330 150 89 48 312 304 258 279 300 240 297 331 82 95 245 286 36 291 266 150 171 52 45 240 205 226 214 110 307 268 209 234 234 169 116 155 200 223 197 156 148 253 331 91 112 114 115 128 120 78 80 57 305 204 176 229 266 271 205 186 200 225 226 224 222 213 210 208 199 194 188 182
347 343 334 330 328 322 309 291 288 269 268 291 312 325 331 340 71 94 69 93 305 329 199 308 315 283 334 14 27 16 317 4 139 266 336 100 167 56 131 218 174 187 250 125 204 256 245 217 203 150 134 206 230 229 181 157 162 128 86 74 70 73 75 82 79 47 49 48 207 188 181 219 264 256 183 176 202 222 222 220 218 209 205 207 202 195 188 180
345 341 330 325 321 316 306 289 276 257 275 303 323 329 339 31 84 63 50 195 293 291 258 332 310 321 43 50 330 346 349 306 322 320 3 48 340 21 120 204 113 116 343 20 242 253 283 259 171 139 187 213 213 214 180 157 145 115 93 82 73 64 54 46 33 43 30 291 221 173 181 195 289 253 191 184 206 213 209 209 211 207 203 203 203 195 187 180
343 338 325 318 312 297 285 293 285 250 295 320 329 337 17 65 61 85 142 255 270 309 337 315 298 12 72 124 307 343 358 316 340 11 5 351 350 11 33 28 48 48 13 0 322 293 328 2 39 248 242 215 167 84 47 148 136 112 106 112 99 58 37 33 6 42 83 268 269 175 174 175 238 256 209 208 222 216 205 202 202 201 199 197 197 196 191 184
342 335 320 307 292 264 242 258 289 298 311 325 336 6 88 48 22 109 268 305 298 297 311 274 304 39 80 77 10 326 338 321 5 53 58 9 5 358 39 175 161 32 358 323 335 334 334 348 324 294 285 18 56 58 50 122 115 92 131 134 106 53 31 53 336 320 200 253 269 152 148 166 235 254 247 236 242 235 217 209 201 197 193 190 193 196 192 185
340 332 315 293 273 260 253 264 281 292 310 330 358 47 80 76 105 215 279 316 268 262 231 280 330 81 92 58 352 301 5 323 356 41 63 47 44 333 304 238 167 78 299 238 351 357 337 318 344 355 344 3 47 97 107 166 171 134 148 139 122 118 80 143 223 302 252 274 279 148 151 196 261 264 253 239 237 229 218 213 202 195 189 186 192 193 185 184
339 332 312 285 269 262 253 251 262 278 311 353 55 62 69 88 210 215 266 265 265 305 349 6 349 35 67 54 283 291 55 320 343 36 10 23 48 353 322 315 343 100 118 90 49 58 45 316 340 6 327 342 21 136 167 155 153 181 192 123 142 156 146 168 188 199 212 288 0 136 167 203 213 247 242 238 243 225 207 199 190 190 186 181 189 190 181 185
340 330 307 291 279 255 228 223 233 248 315 53 66 68 106 195 240 202 238 254 277 328 334 8 49 49 20 325 300 328 142 267 0 40 22 28 63 281 312 309 307 104 103 70 302 126 90 270 293 303 282 343 360 313 163 117 134 237 351 81 166 194 156 135 166 169 157 135 132 169 234 223 215 264 284 292 279 211 187 180 174 175 175 179 194 194 185 186
343 337 312 294 272 149 168 187 185 177 119 76 62 62 177 207 207 171 211 248 306 315 327 358 52 64 354 314 327 352 20 353 29 42 5 13 114 247 274 266 268 63 109 116 170 0 72 302 297 319 337 358 355 319 80 101 158 223 48 168 244 211 120 109 134 112 101 137 217 205 257 289 307 310 327 354 4 169 174 174 173 171 171 185 201 197 187 186
345 346 341 338 17 135 139 148 145 135 89 80 83 187 222 215 182 182 214 287 310 344 68 50 28 84 349 323 308 319 355 5 41 52 356 349 6 258 292 282 255 329 156 144 144 209 118 286 301 343 353 332 337 352 65 59 110 125 133 221 247 5 57 106 132 41 68 195 263 227 237 294 322 297 333 354 0 346 185 177 176 174 176 190 202 200 192 185
339 337 353 5 38 140 132 129 130 108 72 74 78 242 225 205 204 205 220 324 332 46 87 140 184 151 176 155 283 295 5 18 0 41 28 356 316 228 296 303 274 350 24 105 91 26 102 5 303 333 311 300 341 42 21 351 4 117 177 194 92 67 322 7 126 172 79 240 278 280 263 274 238 263 333 342 335 325 255 188 184 183 182 191 199 199 197 188
338 352 9 4 45 138 133 131 120 69 59 71 191 238 224 237 247 226 202 212 49 93 108 216 177 99 165 162 215 284 16 94 180 69 108 75 0 191 63 304 287 343 11 76 106 215 64 74 289 308 303 303 359 35 17 333 337 359 54 31 42 140 187 300 180 159 139 256 259 302 314 285 225 300 326 323 317 314 278 206 196 195 190 191 195 195 195 193
357 55 11 357 66 147 143 125 84 55 62 185 198 209 264 257 263 244 200 198 216 157 187 219 177 124 193 192 192 221 41 98 140 99 119 216 0 321 314 267 286 327 0 44 79 105 48 73 149 301 323 4 10 0 92 48 332 346 19 27 356 334 228 275 296 99 112 207 248 279 293 279 291 321 318 319 319 312 284 220 194 194 185 187 193 191 192 194
11 63 295 355 100 161 144 85 55 77 113 267 204 220 282 265 277 289 221 194 211 202 165 181 174 156 169 162 186 198 93 62 85 105 189 242 98 316 291 216 232 306 12 32 31 61 58 88 106 312 350 84 212 247 25 116 158 316 26 45 357 308 0 179 297 329 97 172 235 199 253 278 308 330 322 329 330 324 318 254 172 163 172 179 187 190 194 195
28 74 308 355 168 173 116 67 255 100 131 236 227 223 275 284 271 296 297 221 214 182 111 157 172 153 157 167 184 170 111 77 13 110 169 224 177 189 264 335 230 222 84 60 294 250 138 102 88 331 250 221 250 271 299 291 131 107 61 40 32 9 59 126 227 290 39 281 255 183 240 261 298 341 333 341 346 344 350 4 70 101 150 164 168 176 184 190
66 268 314 8 183 177 76 56 275 13 176 246 277 231 255 285 255 282 304 301 263 134 61 218 183 136 160 180 173 159 128 121 190 191 190 237 214 216 267 330 337 125 92 63 288 276 94 83 68 327 296 297 294 302 320 1 57 69 15 19 42 12 299 232 208 125 65 294 276 229 250 259 322 340 336 358 9 11 12 13 26 38 40 78 111 128 143 155
128 253 301 14 177 175 87 144 200 325 264 293 338 291 286 274 224 266 279 262 227 150 137 219 195 144 160 111 102 151 150 127 177 244 180 170 233 261 287 324 336 111 106 167 190 96 38 81 79 50 359 344 334 334 341 3 40 62 306 349 15 1 336 281 225 107 161 280 199 192 239 271 319 335 348 10 19 26 24 19 29 36 34 44 60 68 78 85
352 250 274 337 93 141 145 179 150 158 246 332 332 294 312 299 235 232 239 244 211 159 157 237 161 116 121 91 68 59 73 111 174 280 21 186 277 299 309 325 336 143 245 223 169 100 90 128 109 104 96 15 278 266 259 265 35 338 308 343 5 14 11 340 208 114 134 301 47 152 247 289 322 347 356 359 10 25 25 22 29 37 43 53 69 88 96 93
35 5 296 330 9 67 74 281 102 118 170 71 335 292 327 321 291 250 206 216 201 137 101 327 104 81 56 72 71 32 14 48 105 94 104 239 278 279 297 324 320 261 296 96 102 83 95 96 99 137 155 189 203 227 246 176 106 78 314 345 9 22 23 24 53 60 0 315 353 188 235 293 331 351 351 347 6 24 23 24 28 32 41 47 55 79 92 100
83 0 354 342 340 20 28 11 46 61 155 132 145 286 326 326 319 318 240 210 194 109 83 15 80 108 144 123 105 127 293 358 27 107 156 235 270 282 304 328 315 304 326 70 97 88 94 47 50 150 174 218 190 221 289 0 114 127 313 353 16 37 49 54 35 338 290 271 305 267 203 299 331 349 349 353 26 38 25 27 34 34 41 45 38 37 43 50
83 265 170 137 271 253 29 344 3 347 291 219 195 259 321 348 348 340 311 313 355 69 122 28 1 160 175 157 129 146 158 16 349 235 174 218 280 328 340 336 307 323 352 36 42 96 110 92 207 146 128 313 184 312 329 30 106 104 83 17 11 42 68 74 31 319 113 172 261 356 71 358 345 350 348 1 40 48 32 30 42 47 48 49 42 43 48 45
25 355 297 14 80 207 227 299 328 317 287 256 215 277 335 342 330 290 273 314 330 338 116 128 281 251 171 144 119 138 174 161 197 252 210 183 233 12 20 337 299 339 29 35 2 79 118 134 168 109 82 41 273 300 318 329 117 80 50 12 349 37 86 94 81 348 44 167 241 52 73 26 12 347 339 356 21 41 53 46 41 44 50 56 52 48 53 51
21 323 307 11 5 263 264 314 20 4 318 322 248 280 236 217 285 285 256 233 260 303 102 164 218 219 162 143 130 164 200 178 170 205 183 151 184 211 148 178 250 332 15 44 358 41 91 102 82 87 86 289 287 311 323 311 76 86 46 14 336 286 94 93 88 23 28 283 293 308 272 14 33 343 342 359 359 30 58 48 33 25 32 52 64 57 53 51
332 241 170 71 353 311 310 328 59 103 321 334 175 254 279 231 251 302 281 227 198 209 200 179 181 152 113 138 147 186 205 177 170 189 178 161 176 198 201 169 186 288 350 4 316 16 73 99 42 66 90 253 281 346 326 334 30 68 11 3 335 308 335 114 110 87 207 253 306 308 282 310 353 333 347 4 12 33 40 33 21 8 13 36 63 69 64 60
5 311 50 94 290 324 15 343 5 114 239 259 205 254 277 255 263 347 320 275 223 219 206 171 153 118 105 162 187 201 198 181 183 192 174 152 151 182 195 153 164 186 200 154 14 8 99 119 115 95 112 257 288 55 89 3 16 301 286 287 273 302 119 173 150 129 185 207 259 272 268 310 316 327 0 8 18 31 26 10 5 4 16 40 58 67 70 70